ANA473 RJTT-ROAH

Flight info

Callsign ANA473
Flight time 2h 19m
Altitude 34000
Route LAXAS Y56 TOHME Y54 KOHWA Y12 AYANO Y128 LAXEL/N0462F360 Y52 TONAR Y525 IHEYA
Aircraft A320/M-SDE3FGHIRWY/LB1

Departure

Time 2026-04-21 10:16
Airport Tokyo Haneda International Airport (RJTT)

Arrival

Time 2026-04-21 12:36
Airport Naha International Airport (ROAH)
Time Latitude Longitude Altitude Speed Heading
2026-04-21 09:53 35.55268 139.78873 24 ft 0 kts 240°
2026-04-21 10:07 35.55280 139.78897 26 ft 4 kts 236°
2026-04-21 10:07 35.55291 139.78916 25 ft 4 kts 230°
2026-04-21 10:07 35.55309 139.78938 24 ft 4 kts 207°
2026-04-21 10:07 35.55329 139.78943 25 ft 2 kts 149°
2026-04-21 10:08 35.55331 139.78942 25 ft 0 kts 149°
2026-04-21 10:09 35.55311 139.78957 24 ft 8 kts 149°
2026-04-21 10:10 35.55251 139.79001 24 ft 10 kts 149°
2026-04-21 10:10 35.55214 139.79054 24 ft 7 kts 97°
2026-04-21 10:10 35.55236 139.79116 24 ft 12 kts 60°
2026-04-21 10:10 35.55288 139.79225 25 ft 16 kts 59°
2026-04-21 10:11 35.55302 139.79313 25 ft 9 kts 135°
2026-04-21 10:11 35.55250 139.79351 23 ft 8 kts 149°
2026-04-21 10:11 35.55209 139.79381 23 ft 6 kts 150°
2026-04-21 10:11 35.55177 139.79403 10 ft 5 kts 150°
2026-04-21 10:12 35.55129 139.79436 25 ft 10 kts 151°
2026-04-21 10:12 35.55075 139.79473 23 ft 8 kts 151°
2026-04-21 10:12 35.55032 139.79503 23 ft 6 kts 151°
2026-04-21 10:12 35.54998 139.79526 25 ft 5 kts 149°
2026-04-21 10:13 35.54966 139.79551 24 ft 9 kts 148°
2026-04-21 10:13 35.54874 139.79618 23 ft 21 kts 150°
2026-04-21 10:13 35.54744 139.79708 23 ft 21 kts 149°
2026-04-21 10:13 35.54626 139.79793 23 ft 19 kts 150°
2026-04-21 10:14 35.54505 139.79880 24 ft 24 kts 149°
2026-04-21 10:14 35.54342 139.79995 23 ft 27 kts 150°
2026-04-21 10:14 35.54210 139.80088 23 ft 8 kts 150°
2026-04-21 10:14 35.54187 139.80137 23 ft 6 kts 90°
2026-04-21 10:15 35.54215 139.80212 23 ft 12 kts 60°
2026-04-21 10:15 35.54278 139.80280 24 ft 12 kts 11°
2026-04-21 10:15 35.54356 139.80239 24 ft 13 kts 331°
2026-04-21 10:15 35.54498 139.80137 25 ft 49 kts 330°
2026-04-21 10:16 35.54988 139.79791 24 ft 110 kts 330°
2026-04-21 10:16 35.55802 139.79225 53 ft 154 kts 333°
2026-04-21 10:16 35.56752 139.78557 632 ft 160 kts 332°
2026-04-21 10:16 35.57797 139.78139 1263 ft 162 kts
2026-04-21 10:17 35.58708 139.78988 1914 ft 186 kts 56°
2026-04-21 10:17 35.58798 139.80737 2145 ft 231 kts 96°
2026-04-21 10:17 35.58282 139.82725 2432 ft 258 kts 105°
2026-04-21 10:17 35.57576 139.84871 2798 ft 281 kts 108°
2026-04-21 10:18 35.56795 139.87120 3518 ft 288 kts 110°
2026-04-21 10:18 35.56013 139.89398 4425 ft 288 kts 111°
2026-04-21 10:18 35.55179 139.91623 5329 ft 288 kts 123°
2026-04-21 10:18 35.53839 139.93404 6141 ft 289 kts 145°
2026-04-21 10:19 35.52040 139.94467 6952 ft 288 kts 167°
2026-04-21 10:19 35.50062 139.94639 7747 ft 285 kts 191°
2026-04-21 10:19 35.48112 139.94207 8531 ft 286 kts 195°
2026-04-21 10:19 35.46224 139.93468 9293 ft 284 kts 210°
2026-04-21 10:20 35.44565 139.92179 10071 ft 281 kts 224°
2026-04-21 10:20 35.43190 139.90475 10612 ft 288 kts 232°
2026-04-21 10:20 35.41790 139.88582 10784 ft 311 kts 232°
2026-04-21 10:20 35.40274 139.86543 10910 ft 334 kts 231°
2026-04-21 10:21 35.38655 139.84378 11095 ft 353 kts 231°
2026-04-21 10:21 35.36968 139.82137 11577 ft 361 kts 231°
2026-04-21 10:21 35.35254 139.79872 12199 ft 364 kts 231°
2026-04-21 10:21 35.33520 139.77587 12826 ft 368 kts 232°
2026-04-21 10:22 35.31766 139.75281 13429 ft 372 kts 231°
2026-04-21 10:22 35.29838 139.73117 13961 ft 380 kts 226°
2026-04-21 10:22 35.27824 139.71014 14543 ft 381 kts 226°
2026-04-21 10:22 35.25806 139.68917 15178 ft 380 kts 226°
2026-04-21 10:23 35.23794 139.66826 15798 ft 379 kts 227°
2026-04-21 10:23 35.21790 139.64743 16398 ft 378 kts 227°
2026-04-21 10:23 35.19789 139.62661 17022 ft 378 kts 227°
2026-04-21 10:23 35.17792 139.60579 17608 ft 378 kts 227°
2026-04-21 10:24 35.15784 139.58484 18182 ft 379 kts 227°
2026-04-21 10:24 35.13780 139.56397 18659 ft 380 kts 228°
2026-04-21 10:24 35.11764 139.54302 19113 ft 381 kts 228°
2026-04-21 10:24 35.09835 139.52161 19536 ft 377 kts 234°
2026-04-21 10:25 35.08251 139.49653 19935 ft 371 kts 244°
2026-04-21 10:25 35.07111 139.46860 20374 ft 366 kts 253°
2026-04-21 10:25 35.06421 139.43882 20798 ft 364 kts 261°
2026-04-21 10:25 35.05927 139.40848 21222 ft 365 kts 261°
2026-04-21 10:26 35.05422 139.37797 21639 ft 367 kts 261°
2026-04-21 10:26 35.04912 139.34747 22051 ft 368 kts 261°
2026-04-21 10:26 35.04397 139.31680 22450 ft 369 kts 261°
2026-04-21 10:26 35.03879 139.28606 22833 ft 371 kts 261°
2026-04-21 10:27 35.03358 139.25516 23214 ft 372 kts 261°
2026-04-21 10:27 35.02836 139.22415 23588 ft 374 kts 261°
2026-04-21 10:27 35.02310 139.19303 23891 ft 375 kts 261°
2026-04-21 10:27 35.01781 139.16180 24203 ft 376 kts 261°
2026-04-21 10:28 35.01253 139.13049 24504 ft 378 kts 261°
2026-04-21 10:28 35.00724 139.09902 24794 ft 379 kts 261°
2026-04-21 10:28 35.00193 139.06751 25126 ft 379 kts 261°
2026-04-21 10:28 34.99661 139.03608 25425 ft 379 kts 261°
2026-04-21 10:29 34.99127 139.00455 25708 ft 380 kts 261°
2026-04-21 10:29 34.98722 138.97271 25974 ft 380 kts 267°
2026-04-21 10:29 34.98557 138.94052 26248 ft 381 kts 268°
2026-04-21 10:29 34.98393 138.90824 26514 ft 382 kts 268°
2026-04-21 10:30 34.98228 138.87579 26768 ft 383 kts 268°
2026-04-21 10:30 34.98061 138.84334 27004 ft 385 kts 268°
2026-04-21 10:30 34.97888 138.81075 27310 ft 385 kts 268°
2026-04-21 10:30 34.97714 138.77831 27714 ft 383 kts 268°
2026-04-21 10:31 34.97539 138.74592 28115 ft 381 kts 268°
2026-04-21 10:31 34.97366 138.71377 28491 ft 380 kts 268°
2026-04-21 10:31 34.97194 138.68169 28866 ft 378 kts 268°
2026-04-21 10:31 34.97023 138.64977 29215 ft 377 kts 268°
2026-04-21 10:32 34.96854 138.61833 29523 ft 377 kts 268°
2026-04-21 10:32 34.96682 138.58649 29853 ft 376 kts 268°
2026-04-21 10:32 34.96509 138.55469 30176 ft 375 kts 268°
2026-04-21 10:32 34.96334 138.52300 30476 ft 374 kts 268°
2026-04-21 10:33 34.96158 138.49141 30856 ft 371 kts 268°
2026-04-21 10:33 34.95984 138.46022 31251 ft 368 kts 268°
2026-04-21 10:33 34.95809 138.42914 31578 ft 366 kts 268°
2026-04-21 10:33 34.95636 138.39822 31904 ft 365 kts 268°
2026-04-21 10:34 34.95464 138.36749 32205 ft 363 kts 268°
2026-04-21 10:34 34.95290 138.33674 32471 ft 362 kts 268°
2026-04-21 10:34 34.95115 138.30612 32679 ft 362 kts 268°
2026-04-21 10:34 34.94942 138.27554 32899 ft 362 kts 267°
2026-04-21 10:35 34.94768 138.24492 33183 ft 361 kts 267°
2026-04-21 10:35 34.94591 138.21437 33377 ft 361 kts 267°
2026-04-21 10:35 34.94416 138.18387 33631 ft 361 kts 267°
2026-04-21 10:35 34.94242 138.15341 33857 ft 360 kts 267°
2026-04-21 10:36 34.94067 138.12293 33928 ft 362 kts 267°
2026-04-21 10:36 34.93707 138.06186 33934 ft 361 kts 267°
2026-04-21 10:37 34.93343 138.00124 33912 ft 361 kts 267°
2026-04-21 10:37 34.92983 137.94004 33946 ft 363 kts 267°
2026-04-21 10:38 34.92619 137.87873 33958 ft 363 kts 266°
2026-04-21 10:38 34.92243 137.81730 33962 ft 364 kts 266°
2026-04-21 10:39 34.91864 137.75583 33952 ft 363 kts 266°
2026-04-21 10:39 34.91482 137.69445 33960 ft 364 kts 265°
2026-04-21 10:40 34.90154 137.63477 33969 ft 368 kts 253°
2026-04-21 10:40 34.88390 137.57618 33956 ft 368 kts 254°
2026-04-21 10:41 34.86623 137.51750 33972 ft 369 kts 254°
2026-04-21 10:41 34.84859 137.45877 33980 ft 369 kts 254°
2026-04-21 10:42 34.83168 137.39977 33986 ft 369 kts 255°
2026-04-21 10:42 34.81500 137.34065 33976 ft 370 kts 255°
2026-04-21 10:43 34.79814 137.28147 33991 ft 370 kts 255°
2026-04-21 10:43 34.78127 137.22269 34000 ft 370 kts 255°
2026-04-21 10:44 34.76416 137.16357 34010 ft 370 kts 255°
2026-04-21 10:44 34.74707 137.10446 34052 ft 371 kts 255°
2026-04-21 10:45 34.72995 137.04534 34051 ft 371 kts 255°
2026-04-21 10:45 34.71212 136.98653 34048 ft 373 kts 249°
2026-04-21 10:46 34.68009 136.93536 34009 ft 395 kts 229°
2026-04-21 10:46 34.63581 136.89416 34015 ft 405 kts 227°
2026-04-21 10:47 34.59084 136.85258 34037 ft 406 kts 227°
2026-04-21 10:47 34.54583 136.81104 34036 ft 406 kts 227°
2026-04-21 10:48 34.50112 136.76975 34028 ft 406 kts 227°
2026-04-21 10:48 34.45613 136.72824 34040 ft 407 kts 227°
2026-04-21 10:49 34.41110 136.68675 34041 ft 407 kts 227°
2026-04-21 10:49 34.36599 136.64535 34047 ft 406 kts 227°
2026-04-21 10:50 34.32856 136.61099 34050 ft 406 kts 227°
2026-04-21 10:50 34.27607 136.56256 34046 ft 406 kts 228°
2026-04-21 10:51 34.23156 136.52067 34043 ft 406 kts 228°
2026-04-21 10:51 34.18706 136.47867 34049 ft 406 kts 228°
2026-04-21 10:52 34.14267 136.43709 34053 ft 407 kts 227°
2026-04-21 10:52 34.09751 136.39570 34054 ft 412 kts 223°
2026-04-21 10:53 34.05508 136.36771 34039 ft 420 kts 218°
2026-04-21 10:53 34.00316 136.33506 34039 ft 422 kts 218°
2026-04-21 10:54 33.95118 136.30226 34050 ft 422 kts 218°
2026-04-21 10:54 33.89909 136.26944 34055 ft 422 kts 218°
2026-04-21 10:55 33.84707 136.23667 34058 ft 422 kts 218°
2026-04-21 10:55 33.79504 136.20393 34057 ft 422 kts 218°
2026-04-21 10:56 33.74298 136.17125 34031 ft 422 kts 218°
2026-04-21 10:56 33.69064 136.13848 34037 ft 426 kts 217°
2026-04-21 10:57 33.63806 136.10561 34046 ft 426 kts 217°
2026-04-21 10:57 33.58579 136.07300 34050 ft 426 kts 217°
2026-04-21 10:58 33.53317 136.04021 34052 ft 426 kts 217°
2026-04-21 10:58 33.48059 136.00744 34036 ft 426 kts 217°
2026-04-21 10:59 33.42803 135.97477 34045 ft 426 kts 217°
2026-04-21 10:59 33.37539 135.94212 34029 ft 426 kts 217°
2026-04-21 11:00 33.32277 135.90945 34044 ft 426 kts 217°
2026-04-21 11:00 33.27014 135.87680 34048 ft 426 kts 216°
2026-04-21 11:01 33.21742 135.84418 34026 ft 426 kts 216°
2026-04-21 11:01 33.16510 135.81183 34037 ft 426 kts 216°
2026-04-21 11:02 33.08605 135.76313 34054 ft 426 kts 216°
2026-04-21 11:02 33.03335 135.73063 34062 ft 426 kts 216°
2026-04-21 11:03 32.98072 135.69829 34063 ft 426 kts 216°
2026-04-21 11:03 32.92804 135.66599 34047 ft 425 kts 216°
2026-04-21 11:04 32.87575 135.63397 34057 ft 425 kts 216°
2026-04-21 11:04 32.82319 135.60178 34066 ft 425 kts 216°
2026-04-21 11:05 32.77063 135.56960 34053 ft 425 kts 216°
2026-04-21 11:05 32.71812 135.53750 34069 ft 424 kts 216°
2026-04-21 11:06 32.66555 135.50550 34070 ft 424 kts 216°
2026-04-21 11:06 32.61310 135.47361 34077 ft 424 kts 216°
2026-04-21 11:07 32.56061 135.44165 34080 ft 424 kts 216°
2026-04-21 11:07 32.50812 135.40969 34081 ft 424 kts 216°
2026-04-21 11:08 32.45565 135.37789 34058 ft 424 kts 216°
2026-04-21 11:08 32.40311 135.34609 34043 ft 424 kts 216°
2026-04-21 11:09 32.35058 135.31427 34050 ft 424 kts 216°
2026-04-21 11:09 32.29801 135.28253 34061 ft 425 kts 216°
2026-04-21 11:10 32.24542 135.25080 34068 ft 425 kts 216°
2026-04-21 11:10 32.19275 135.21907 34073 ft 425 kts 216°
2026-04-21 11:11 32.14015 135.18736 34059 ft 425 kts 216°
2026-04-21 11:11 32.09157 135.15059 34066 ft 409 kts 229°
2026-04-21 11:12 32.05497 135.10071 34069 ft 400 kts 238°
2026-04-21 11:12 32.02107 135.04873 34070 ft 400 kts 238°
2026-04-21 11:13 31.98714 134.99676 34069 ft 400 kts 238°
2026-04-21 11:13 31.95319 134.94484 34069 ft 400 kts 238°
2026-04-21 11:14 31.91923 134.89300 34054 ft 400 kts 238°
2026-04-21 11:14 31.88512 134.84106 34059 ft 400 kts 238°
2026-04-21 11:15 31.85105 134.78922 34066 ft 401 kts 238°
2026-04-21 11:15 31.81693 134.73735 34069 ft 401 kts 238°
2026-04-21 11:16 31.78276 134.68549 34069 ft 401 kts 238°
2026-04-21 11:16 31.74858 134.63361 34070 ft 401 kts 238°
2026-04-21 11:17 31.71459 134.58214 34082 ft 401 kts 238°
2026-04-21 11:17 31.68039 134.53039 34066 ft 401 kts 237°
2026-04-21 11:18 31.64600 134.47862 34068 ft 402 kts 237°
2026-04-21 11:18 31.61160 134.42677 34071 ft 402 kts 237°
2026-04-21 11:19 31.57725 134.37498 34069 ft 402 kts 237°
2026-04-21 11:19 31.54284 134.32326 34066 ft 403 kts 237°
2026-04-21 11:20 31.50833 134.27135 34069 ft 404 kts 237°
2026-04-21 11:20 31.47378 134.21939 34082 ft 404 kts 237°
2026-04-21 11:21 31.43909 134.16753 34062 ft 405 kts 237°
2026-04-21 11:21 31.40427 134.11547 34063 ft 406 kts 237°
2026-04-21 11:22 31.36962 134.06368 34067 ft 407 kts 237°
2026-04-21 11:22 31.33471 134.01161 34072 ft 407 kts 236°
2026-04-21 11:23 31.29972 133.95944 34066 ft 408 kts 236°
2026-04-21 11:23 31.26464 133.90721 34066 ft 409 kts 236°
2026-04-21 11:24 31.22947 133.85496 34072 ft 409 kts 236°
2026-04-21 11:24 31.19422 133.80266 34066 ft 409 kts 236°
2026-04-21 11:25 31.15894 133.75045 34067 ft 410 kts 236°
2026-04-21 11:25 31.12361 133.69816 34070 ft 410 kts 236°
2026-04-21 11:26 31.08831 133.64593 34058 ft 410 kts 236°
2026-04-21 11:26 31.05293 133.59375 34068 ft 410 kts 236°
2026-04-21 11:27 31.01750 133.54149 34074 ft 410 kts 236°
2026-04-21 11:27 30.98205 133.48921 34077 ft 411 kts 236°
2026-04-21 11:28 30.94680 133.43731 34062 ft 411 kts 235°
2026-04-21 11:28 30.91125 133.38507 34079 ft 411 kts 235°
2026-04-21 11:29 30.87563 133.33287 34079 ft 412 kts 235°
2026-04-21 11:29 30.83996 133.28070 34083 ft 412 kts 235°
2026-04-21 11:30 30.80433 133.22845 34074 ft 412 kts 235°
2026-04-21 11:30 30.76858 133.17619 34077 ft 413 kts 235°
2026-04-21 11:31 30.73278 133.12390 34070 ft 414 kts 235°
2026-04-21 11:31 30.69690 133.07161 34057 ft 414 kts 235°
2026-04-21 11:32 30.66114 133.01962 34074 ft 414 kts 234°
2026-04-21 11:32 30.62506 132.96728 34078 ft 415 kts 234°
2026-04-21 11:33 30.58904 132.91488 34073 ft 415 kts 234°
2026-04-21 11:33 30.55295 132.86242 34079 ft 415 kts 234°
2026-04-21 11:34 30.51681 132.81009 34073 ft 416 kts 234°
2026-04-21 11:34 30.48060 132.75781 34076 ft 416 kts 234°
2026-04-21 11:35 30.44436 132.70548 34060 ft 416 kts 234°
2026-04-21 11:35 30.40815 132.65319 34067 ft 416 kts 234°
2026-04-21 11:36 30.37188 132.60097 34077 ft 416 kts 234°
2026-04-21 11:36 30.33583 132.54907 34083 ft 416 kts 234°
2026-04-21 11:37 30.29955 132.49686 34069 ft 416 kts 234°
2026-04-21 11:37 30.26321 132.44484 34070 ft 416 kts 234°
2026-04-21 11:38 30.22682 132.39288 34089 ft 416 kts 234°
2026-04-21 11:38 30.19037 132.34089 34085 ft 416 kts 234°
2026-04-21 11:39 30.15402 132.28884 34063 ft 416 kts 233°
2026-04-21 11:39 30.11768 132.23676 34064 ft 417 kts 233°
2026-04-21 11:40 30.08735 132.19351 34073 ft 417 kts 233°
2026-04-21 11:40 30.05078 132.14144 34066 ft 417 kts 233°
2026-04-21 11:41 30.00817 132.08093 34041 ft 419 kts 233°
2026-04-21 11:41 29.97729 132.03716 34045 ft 420 kts 233°
2026-04-21 11:42 29.94067 131.98516 34060 ft 420 kts 233°
2026-04-21 11:42 29.90363 131.93266 34044 ft 421 kts 233°
2026-04-21 11:43 29.86656 131.88026 34053 ft 422 kts 233°
2026-04-21 11:43 29.82937 131.82781 34058 ft 423 kts 233°
2026-04-21 11:44 29.79184 131.77554 34063 ft 423 kts 232°
2026-04-21 11:44 29.75362 131.72403 34044 ft 424 kts 232°
2026-04-21 11:45 29.71520 131.67256 34048 ft 424 kts 232°
2026-04-21 11:45 29.67711 131.62118 34054 ft 425 kts 232°
2026-04-21 11:46 29.63869 131.56921 34068 ft 426 kts 232°
2026-04-21 11:46 29.60019 131.51730 34061 ft 427 kts 232°
2026-04-21 11:47 29.56151 131.46527 34059 ft 429 kts 232°
2026-04-21 11:47 29.52275 131.41317 34060 ft 429 kts 232°
2026-04-21 11:48 29.48385 131.36111 34046 ft 429 kts 232°
2026-04-21 11:48 29.44494 131.30895 34055 ft 431 kts 232°
2026-04-21 11:49 29.40590 131.25669 34057 ft 432 kts 231°
2026-04-21 11:49 29.36669 131.20433 34064 ft 433 kts 231°
2026-04-21 11:50 29.32741 131.15191 34051 ft 433 kts 231°
2026-04-21 11:50 29.28847 131.09988 34073 ft 433 kts 231°
2026-04-21 11:51 29.24913 131.04756 34075 ft 433 kts 231°
2026-04-21 11:51 29.20983 130.99530 34076 ft 433 kts 231°
2026-04-21 11:52 29.17052 130.94310 34074 ft 433 kts 231°
2026-04-21 11:52 29.13115 130.89087 34090 ft 433 kts 231°
2026-04-21 11:53 29.09185 130.83873 34090 ft 432 kts 231°
2026-04-21 11:53 29.05256 130.78670 34088 ft 432 kts 231°
2026-04-21 11:54 29.01331 130.73480 34086 ft 431 kts 231°
2026-04-21 11:54 28.97439 130.68347 34091 ft 429 kts 231°
2026-04-21 11:55 28.93537 130.63202 34094 ft 428 kts 231°
2026-04-21 11:55 28.89635 130.58061 34089 ft 428 kts 231°
2026-04-21 11:56 28.85737 130.52952 34093 ft 425 kts 231°
2026-04-21 11:56 28.81868 130.47878 34095 ft 423 kts 231°
2026-04-21 11:57 28.78016 130.42825 34099 ft 421 kts 231°
2026-04-21 11:57 28.74178 130.37789 34076 ft 420 kts 231°
2026-04-21 11:58 28.70341 130.32772 34069 ft 420 kts 231°
2026-04-21 11:58 28.66525 130.27789 34066 ft 420 kts 231°
2026-04-21 11:59 28.62681 130.22779 34069 ft 420 kts 231°
2026-04-21 11:59 28.58843 130.17770 34052 ft 420 kts 231°
2026-04-21 12:00 28.55000 130.12759 34046 ft 420 kts 231°
2026-04-21 12:00 28.51159 130.07758 34041 ft 420 kts 231°
2026-04-21 12:01 28.47312 130.02769 34041 ft 420 kts 231°
2026-04-21 12:01 28.43460 129.97779 34021 ft 420 kts 231°
2026-04-21 12:02 28.37696 129.90307 34036 ft 418 kts 231°
2026-04-21 12:03 28.33888 129.85377 34038 ft 418 kts 231°
2026-04-21 12:03 28.30052 129.80426 34048 ft 417 kts 231°
2026-04-21 12:04 28.26214 129.75472 34038 ft 418 kts 231°
2026-04-21 12:04 28.22371 129.70524 34044 ft 418 kts 231°
2026-04-21 12:05 28.18522 129.65572 34055 ft 419 kts 231°
2026-04-21 12:05 28.14673 129.60619 34067 ft 419 kts 231°
2026-04-21 12:06 28.10813 129.55662 34071 ft 419 kts 231°
2026-04-21 12:06 28.06944 129.50706 34067 ft 420 kts 231°
2026-04-21 12:07 28.03068 129.45741 34064 ft 421 kts 231°
2026-04-21 12:07 27.99193 129.40771 34066 ft 421 kts 231°
2026-04-21 12:08 27.95308 129.35806 34055 ft 421 kts 231°
2026-04-21 12:08 27.91442 129.30871 34059 ft 422 kts 231°
2026-04-21 12:09 27.87549 129.25898 34065 ft 422 kts 230°
2026-04-21 12:09 27.83641 129.20921 34064 ft 423 kts 230°
2026-04-21 12:10 27.79731 129.15959 34046 ft 423 kts 230°
2026-04-21 12:10 27.75829 129.11004 34089 ft 421 kts 230°
2026-04-21 12:11 27.71945 129.06078 34094 ft 419 kts 230°
2026-04-21 12:11 27.68067 129.01166 34090 ft 418 kts 230°
2026-04-21 12:12 27.64198 128.96270 34081 ft 417 kts 230°
2026-04-21 12:12 27.60361 128.91415 34070 ft 417 kts 230°
2026-04-21 12:13 27.56504 128.86531 34058 ft 417 kts 230°
2026-04-21 12:13 27.52635 128.81649 34045 ft 418 kts 230°
2026-04-21 12:14 27.48751 128.76766 34039 ft 418 kts 230°
2026-04-21 12:14 27.44860 128.71887 34038 ft 418 kts 230°
2026-04-21 12:15 27.41531 128.66581 34062 ft 415 kts 240°
2026-04-21 12:15 27.38600 128.60972 34058 ft 416 kts 240°
2026-04-21 12:16 27.35645 128.55352 34053 ft 418 kts 240°
2026-04-21 12:16 27.32685 128.49734 34053 ft 418 kts 240°
2026-04-21 12:17 27.29714 128.44106 34050 ft 418 kts 240°
2026-04-21 12:17 27.26746 128.38481 34050 ft 418 kts 240°
2026-04-21 12:18 27.23771 128.32872 34057 ft 418 kts 240°
2026-04-21 12:18 27.20792 128.27262 34057 ft 418 kts 240°
2026-04-21 12:19 27.17840 128.21681 34058 ft 417 kts 240°
2026-04-21 12:19 27.14871 128.16082 34051 ft 418 kts 241°
2026-04-21 12:20 27.11889 128.10469 34048 ft 419 kts 241°
2026-04-21 12:20 27.08897 128.04843 34052 ft 420 kts 240°
2026-04-21 12:21 27.05899 127.99226 34063 ft 420 kts 240°
2026-04-21 12:21 27.02318 127.94054 34063 ft 426 kts 223°
2026-04-21 12:21 26.99829 127.92213 34043 ft 433 kts 211°
2026-04-21 12:22 26.97013 127.90997 33824 ft 434 kts 199°
2026-04-21 12:22 26.94054 127.90511 33522 ft 426 kts 187°
2026-04-21 12:22 26.91112 127.90558 32846 ft 420 kts 184°
2026-04-21 12:22 26.88222 127.90649 31942 ft 425 kts 184°
2026-04-21 12:23 26.85234 127.90739 30889 ft 435 kts 184°
2026-04-21 12:23 26.82181 127.90831 29886 ft 442 kts 184°
2026-04-21 12:23 26.79077 127.90922 28586 ft 451 kts 184°
2026-04-21 12:23 26.75910 127.91014 27410 ft 458 kts 183°
2026-04-21 12:24 26.72712 127.91112 26384 ft 460 kts 183°
2026-04-21 12:24 26.69483 127.91214 25182 ft 466 kts 183°
2026-04-21 12:24 26.66219 127.91317 24106 ft 470 kts 183°
2026-04-21 12:24 26.62942 127.91420 22991 ft 472 kts 182°
2026-04-21 12:25 26.59676 127.91522 22005 ft 464 kts 182°
2026-04-21 12:25 26.56504 127.91622 20956 ft 448 kts 182°
2026-04-21 12:25 26.53418 127.91715 19701 ft 440 kts 181°
2026-04-21 12:25 26.50377 127.91804 18709 ft 437 kts 181°
2026-04-21 12:26 26.47343 127.91891 17904 ft 435 kts 181°
2026-04-21 12:26 26.44332 127.91980 17254 ft 423 kts 181°
2026-04-21 12:26 26.41498 127.92062 16992 ft 392 kts 182°
2026-04-21 12:26 26.38873 127.91742 16365 ft 372 kts 197°
2026-04-21 12:27 26.36500 127.90731 15523 ft 361 kts 206°
2026-04-21 12:27 26.34196 127.89661 14638 ft 358 kts 196°
2026-04-21 12:27 26.31756 127.89424 13806 ft 357 kts 177°
2026-04-21 12:27 26.30092 127.89644 13138 ft 356 kts 174°
2026-04-21 12:28 26.26855 127.90166 11843 ft 353 kts 174°
2026-04-21 12:28 26.24445 127.90562 11270 ft 343 kts 174°
2026-04-21 12:28 26.22129 127.90743 10797 ft 324 kts 189°
2026-04-21 12:28 26.20681 127.90350 10528 ft 310 kts 206°
2026-04-21 12:29 26.18992 127.89043 10292 ft 289 kts 231°
2026-04-21 12:29 26.17606 127.86553 9981 ft 284 kts 245°
2026-04-21 12:29 26.17173 127.85192 9737 ft 281 kts 259°
2026-04-21 12:29 26.16886 127.83049 9388 ft 279 kts 263°
2026-04-21 12:30 26.16668 127.80917 8990 ft 274 kts 264°
2026-04-21 12:30 26.16260 127.78889 8489 ft 267 kts 242°
2026-04-21 12:30 26.15001 127.77443 7998 ft 262 kts 207°
2026-04-21 12:30 26.13282 127.76856 7524 ft 257 kts 192°
2026-04-21 12:31 26.11555 127.76449 7098 ft 251 kts 191°
2026-04-21 12:31 26.09862 127.76051 6671 ft 246 kts 191°
2026-04-21 12:31 26.08206 127.75662 6234 ft 241 kts 191°
2026-04-21 12:31 26.06663 127.74989 5785 ft 239 kts 214°
2026-04-21 12:32 26.05549 127.73651 5335 ft 236 kts 241°
2026-04-21 12:32 26.05008 127.71943 4893 ft 234 kts 263°
2026-04-21 12:32 26.04923 127.70154 4438 ft 230 kts 268°
2026-04-21 12:32 26.04869 127.68380 3989 ft 229 kts 268°
2026-04-21 12:33 26.04808 127.66603 3466 ft 232 kts 269°
2026-04-21 12:33 26.05141 127.64865 2902 ft 234 kts 304°
2026-04-21 12:33 26.06374 127.63765 2358 ft 230 kts 346°
2026-04-21 12:33 26.07928 127.63721 1958 ft 220 kts
2026-04-21 12:34 26.09435 127.63764 1659 ft 214 kts
2026-04-21 12:34 26.10881 127.63691 1376 ft 203 kts 360°
2026-04-21 12:34 26.12219 127.63621 1137 ft 182 kts
2026-04-21 12:34 26.13399 127.63563 916 ft 159 kts
2026-04-21 12:35 26.14449 127.63513 712 ft 144 kts
2026-04-21 12:35 26.15422 127.63468 549 ft 141 kts
2026-04-21 12:35 26.16414 127.63423 361 ft 143 kts
2026-04-21 12:35 26.17411 127.63376 167 ft 144 kts
2026-04-21 12:36 26.18402 127.63334 22 ft 137 kts
2026-04-21 12:36 26.19120 127.63300 15 ft 61 kts 358°
2026-04-21 12:36 26.19354 127.63304 16 ft 21 kts 12°
2026-04-21 12:36 26.19489 127.63363 18 ft 21 kts 27°
2026-04-21 12:37 26.19593 127.63423 19 ft 11 kts 28°
2026-04-21 12:37 26.19658 127.63460 17 ft 10 kts 18°
2026-04-21 12:37 26.19723 127.63459 17 ft 9 kts 356°
2026-04-21 12:37 26.19778 127.63455 17 ft 7 kts 356°
2026-04-21 12:38 26.19829 127.63454 17 ft 11 kts 359°
2026-04-21 12:38 26.19940 127.63449 17 ft 17 kts 356°
2026-04-21 12:38 26.20064 127.63442 17 ft 18 kts 358°
2026-04-21 12:38 26.20199 127.63437 17 ft 20 kts 358°
2026-04-21 12:39 26.20287 127.63438 17 ft 9 kts 16°
2026-04-21 12:39 26.20301 127.63493 17 ft 8 kts 89°
2026-04-21 12:39 26.20304 127.63577 17 ft 13 kts 88°
2026-04-21 12:39 26.20307 127.63686 17 ft 15 kts 88°
2026-04-21 12:40 26.20312 127.63811 17 ft 17 kts 87°
2026-04-21 12:40 26.20318 127.63950 17 ft 19 kts 87°
2026-04-21 12:40 26.20324 127.64102 17 ft 20 kts 88°
2026-04-21 12:40 26.20331 127.64266 17 ft 22 kts 87°
2026-04-21 12:41 26.20371 127.64318 17 ft 8 kts 353°
2026-04-21 12:41 26.20435 127.64314 17 ft 13 kts 358°
2026-04-21 12:41 26.20525 127.64311 17 ft 13 kts 358°
2026-04-21 12:41 26.20610 127.64324 17 ft 14 kts 14°
2026-04-21 12:42 26.20727 127.64354 17 ft 19 kts 13°
2026-04-21 12:42 26.20866 127.64389 16 ft 21 kts 12°
2026-04-21 12:42 26.20927 127.64475 17 ft 15 kts 97°
2026-04-21 12:42 26.20899 127.64589 17 ft 16 kts 92°
2026-04-21 12:43 26.20904 127.64722 17 ft 10 kts 86°
2026-04-21 12:43 26.20902 127.64753 18 ft 7 kts 110°
2026-04-21 12:43 26.20870 127.64793 19 ft 6 kts 132°
2026-04-21 12:43 26.20852 127.64815 23 ft 2 kts 132°
2026-04-21 12:44 26.20832 127.64839 21 ft 6 kts 132°
2026-04-21 12:44 26.20827 127.64845 22 ft 0 kts 133°